Content
SEND FEEDBACK

Daily
Averages
Monthly
Summary
United States of America

YIGO, GUAM


Home > North America > United States > Guam
Elevation: 162 meters     Latitude: 13 32N     Longitude: 144 53E

WEATHER
 
SELECT A DAY
Number of Records: 209,106;   Date Range: 1/1/95 - 8/12/14
 
SHARE

PRINT THIS DATA

[ ← Previous Day ]
WEATHER ALMANAC - 14 MARCH, 2013
[ Next Day → ]
[ °F ]   °C
Weather ElementAverageHighLow
Temperature28.1 °C32.2 °C (12:54 pm)25 °C (6:54 am)
Dewpoint21.7 °C23.3 °C (1:54 am)20 °C (3:54 pm)
Humidity69.2 %88 % (6:54 am)51 % (3:54 pm)
Barometer1011.5 hPa1013.5 hPa (10:54 pm)1009.5 hPa (2:54 pm)
Wind Speed18.5 km/h27.8 km/h (10:54 am)
Wind Gust35.2 km/h (11:54 am)
Weather ElementAverage
Visibility16.1 km
Wind DirectionENE (57 °)

Weather ElementTotal
Precipitation0.25 mm
Cooling Degree Days10.3 (Base 18.3)
Growing Degree Days18.6 (Base 10)
Averaged from 23 records on 14 March, 2013
WEATHER CONDITIONS BREAKOUT
WIND DIRECTION BREAKOUT
WEATHER BY HOUR - 14 MARCH, 2013
[ °F ]   °C
Local TimeTemperatureDewpointHumidityBarometerVisibilityWind DirectionWind SpeedGust SpeedPrecipitationEventsConditions
1:54 AM25.6 °C23.3 °C87 %1011.2 hPa16.1 kmNE (50°)9.3 km/h0.25 mmMostly Cloudy
2:54 AM25.6 °C23.3 °C87 %1010.5 hPa16.1 kmENE (60°)18.5 km/h0 mmScattered Clouds
3:54 AM25.6 °C23.3 °C87 %1010.2 hPa16.1 kmENE (70°)14.8 km/hMostly Cloudy
4:54 AM25.6 °C22.2 °C81 %1010.2 hPa16.1 kmENE (60°)20.4 km/hClear
5:54 AM26.1 °C22.8 °C82 %1010.8 hPa16.1 kmENE (70°)14.8 km/hScattered Clouds
6:54 AM25 °C22.8 °C88 %1011.2 hPa16.1 kmNE (50°)14.8 km/h0 mmPartly Cloudy
7:54 AM27.2 °C22.8 °C77 %1011.9 hPa16.1 kmENE (60°)22.2 km/hPartly Cloudy
8:54 AM28.9 °C22.8 °C69 %1012.5 hPa16.1 kmENE (70°)22.2 km/hScattered Clouds
9:54 AM29.4 °C22.2 °C65 %1012.5 hPa16.1 kmENE (60°)20.4 km/hMostly Cloudy
10:54 AM30.6 °C21.1 °C57 %1012.2 hPa16.1 kmENE (70°)27.8 km/hMostly Cloudy
11:54 AM31.1 °C21.7 °C57 %1011.5 hPa16.1 kmENE (70°)25.9 km/h35.2 km/hMostly Cloudy
12:54 PM32.2 °C21.1 °C52 %1010.8 hPa16.1 kmENE (60°)25.9 km/h33.3 km/hScattered Clouds
1:54 PM30.6 °C21.1 °C57 %1010.2 hPa16.1 kmENE (70°)22.2 km/hMostly Cloudy
2:54 PM31.1 °C20.6 °C53 %1009.5 hPa16.1 kmNE (50°)27.8 km/hMostly Cloudy
3:54 PM31.1 °C20 °C51 %1009.5 hPa16.1 kmNNE (30°)25.9 km/hPartly Cloudy
4:54 PM30.6 °C21.1 °C57 %1009.8 hPa16.1 kmNNE (30°)24.1 km/hPartly Cloudy
5:54 PM28.9 °C21.7 °C65 %1010.5 hPa16.1 kmNNE (30°)22.2 km/hClear
6:54 PM27.8 °C21.7 °C69 %1011.2 hPa16.1 kmNE (50°)13 km/hClear
7:54 PM27.2 °C21.1 °C69 %1012.2 hPa16.1 kmENE (70°)9.3 km/hClear
8:54 PM26.7 °C20.6 °C69 %1012.5 hPa16.1 kmENE (60°)9.3 km/hClear
9:54 PM26.1 °C20.6 °C72 %1013.2 hPa16.1 kmNE (50°)11.1 km/hPartly Cloudy
10:54 PM25.6 °C20 °C71 %1013.5 hPa16.1 kmENE (60°)9.3 km/hClear
11:54 PM26.7 °C20.6 °C69 %1013.5 hPa16.1 kmENE (60°)13 km/hClear
Hourly data recorded from PGUM, located 0 kilometers away from Yigo, Guam







STORIES FROM OUR PARTNERS